Flag for Bolivia Weather past 2 weeks in Cochabamba, Bolivia

Now
57 °F

Broken clouds.


Feels Like: 57 °F
Forecast: 43 / 67 °F
Wind: No wind

Location: Cochabamba Airport

Current Time: Jul 6, 2015 at 11:55:42 AM

Latest Report: Jul 6, 2015 at 11:00 AM


Visibility: 4 mi

Pressure: 30.27 "Hg (22.26 "Hg at 2584m altitude)

Humidity: 55%

Dew point: 41 °F

Location of CochabambaLocation

Historic Weather in Cochabamba — Graph

°F

Cochabamba temperature yesterday

Maximum temperature yesterday: 64 °F (at 5:00 PM)
Minimum temperature yesterday: 41 °F (at 5:00 AM)
Average temperature yesterday: 52 °F

Past Weeks' High & Low Weather Summary

 TemperatureHumidityPressure
High82 °F (Jun 26, 3:00 PM)100% (Jul 4, 7:00 AM)30.45 "Hg (Jul 4, 7:00 AM)
Low36 °F (Jun 30, 7:00 AM)7% (Jun 26, 6:00 PM)30.04 "Hg (Jul 2, 5:00 PM)
Average58 °F48%30.28 "Hg
* Reported Jun 21 11:00 AM — Jul 6 11:00 AM, Cochabamba, Weather by CustomWeather, © 2015

Note: Actual official high and low records may vary slightly from our data, if they occured in-between our weather recording intervals... More about our weather records

Advertising

Cochabamba weather history for previous 24 hours

 ConditionsComfort  
Time TempWeatherWind HumidityBarometerVisibility
11:00 AM
Mon, Jul 6
57 °FBroken clouds.No wind55%30.27 "Hg4 mi
10:00 AM52 °FPartly sunny.No wind77%30.30 "Hg2 mi
9:00 AM46 °FPartly sunny.3 mph93%30.30 "Hg2 mi
8:00 AM41 °FFog.No wind100%30.27 "Hg2 mi
7:00 AM43 °FFog.3 mph100%30.27 "Hg1 mi
6:00 AM45 °FOvercast.No wind93%30.24 "Hg4 mi
5:00 AM43 °FOvercast.No wind100%30.21 "Hg5 mi
4:00 AM45 °FPassing clouds.No wind100%30.18 "HgN/A
3:00 AM46 °FPassing clouds.No wind93%30.21 "HgN/A
2:00 AM46 °FPassing clouds.No wind100%30.21 "HgN/A
1:00 AM50 °FPassing clouds.No wind94%30.24 "HgN/A
12:00 AM50 °FPassing clouds.No wind94%30.24 "HgN/A
11:00 PM
Sun, Jul 5
50 °FPassing clouds.No wind94%30.24 "HgN/A
10:00 PM52 °FPartly cloudy.No wind82%30.21 "HgN/A
9:00 PM55 °FPartly cloudy.No wind72%30.18 "HgN/A
8:00 PM57 °FPartly cloudy.6 mph59%30.18 "HgN/A
7:00 PM59 °FPartly cloudy.3 mph59%30.15 "HgN/A
6:00 PM61 °FPartly sunny.No wind59%30.15 "Hg5 mi
5:00 PM64 °FPartly sunny.No wind43%30.15 "Hg4 mi
4:00 PM63 °FPartly sunny.No wind52%30.18 "Hg4 mi
3:00 PM63 °FPartly sunny.No wind49%30.18 "Hg4 mi
2:00 PM63 °FBroken clouds.No wind45%30.21 "Hg5 mi
1:00 PM59 °FBroken clouds.3 mph68%30.24 "Hg3 mi
12:00 PM55 °FFog.No wind88%30.27 "Hg2 mi
11:00 AM48 °FFog.No wind94%30.33 "Hg1 mi
Weather by CustomWeather, © 2015

See weather overviewHow to use our weather pages